Location: Białystok
(53.1343°N, 23.1544°E)
Time: 10:47:25
(UTC+01:00)

ISS - Pass Details

Date: 01 February 2019
Orbit: 403 x 411 km, 51.6° (Epoch: 22 February)

Event Time Altitude Azimuth Distance (km) Brightness Sun altitude
Rises 17:19:32 0° 262° (W) 2,333 2.2 -10.4°
Reaches altitude 10° 17:21:37 10° 259° (W) 1,474 0.6 -10.7°
Maximum altitude 17:24:54 68° 177° (S) 446 -3.6 -11.2°
Enters shadow 17:27:15 18° 96° (E) 1,097 -2.2 -11.6°
